Terminal Aerodrome Forecast
Issued by NWS

Home | Current Version | Previous Version | Text Only | Print | Product List | Glossary On
Versions: 1 2 3 4 5 6 7 8 9 10 11 12 13 14 15 16 17 18 19 20 21 22 23 24 25 26 27 28 29 30 31 32 33 34 35 36 37 38 39 40 41 42 43 44 45 46 47 48 49 50
000
FTUS43 KDMX 220155 AAB
TAFFOD
TAF AMD
KFOD 220155Z 2202/2224 18013KT 6SM BR OVC005
     FM220300 17015KT 2SM -DZ BR OVC005
     FM221300 14014KT 1SM -DZ BR OVC004
     FM221600 13012KT 2SM -RA OVC002
     FM222000 14016KT 1SM -RA BR OVC005=

USA.gov is the U.S. government's official web portal to all federal, state and local government web resources and services.